This is the latest recevied weather packets stored in our database for station/object OH2HCY. If no packets are shown the sender has not sent any weather packets the latest 10 day(s).
| Time | Temp. | Humidity | Pressure | Rain* | Wind** | Luminosity | Snow |
|---|---|---|---|---|---|---|---|
| 1777889650 | 9.44° C | 78% | 1000.6 hPa | - | - | - | - |
| 1777889105 | 10° C | 75% | 1000.7 hPa | - | - | - | - |
| 1777888565 | 10° C | 70% | 1000.7 hPa | - | - | - | - |
| 1777887438 | 11.11° C | 64% | 1000.5 hPa | - | - | - | - |
| 1777886880 | 11.11° C | 60% | 1000.3 hPa | - | - | - | - |
| 1777886350 | 11.67° C | 61% | 1000.2 hPa | - | - | - | - |
| 1777885830 | 11.67° C | 57% | 1000.3 hPa | - | - | - | - |
| 1777885320 | 11.67° C | 51% | 1000.1 hPa | - | - | - | - |
| 1777884825 | 12.22° C | 52% | 1000 hPa | - | - | - | - |
| 1777884295 | 12.78° C | 46% | 1000 hPa | - | - | - | - |
| 1777883740 | 12.78° C | 46% | 1000 hPa | - | - | - | - |
| 1777883225 | 12.78° C | 46% | 999.9 hPa | - | - | - | - |
| 1777882715 | 12.78° C | 46% | 999.9 hPa | - | - | - | - |
| 1777882214 | 12.78° C | 46% | 999.9 hPa | - | - | - | - |
| 1777881683 | 12.78° C | 46% | 1000 hPa | - | - | - | - |
| 1777881130 | 12.78° C | 45% | 999.9 hPa | - | - | - | - |
| 1777880025 | 12.78° C | 45% | 999.7 hPa | - | - | - | - |
| 1777879525 | 12.78° C | 45% | 999.5 hPa | - | - | - | - |
| 1777878955 | 12.78° C | 44% | 999.4 hPa | - | - | - | - |
| 1777878432 | 12.78° C | 44% | 999.5 hPa | - | - | - | - |
| 1777877875 | 12.78° C | 44% | 999.5 hPa | - | - | - | - |
| 1777877327 | 12.78° C | 44% | 999.7 hPa | - | - | - | - |
| 1777876788 | 12.78° C | 44% | 999.9 hPa | - | - | - | - |
| 1777876220 | 12.22° C | 46% | 1000.1 hPa | - | - | - | - |
| 1777875720 | 11.67° C | 46% | 1000.2 hPa | - | - | - | - |
* Rain since midnight (hover to see other rain measurements)
** Current wind speed in m/s (hover to see current wind gust speed)